Location: White Mills Observatory
(37.5374°N, 86.0303°W)
Time: 10:28:52
(UTC-04:00)

Amateur Radio Satellites - All Passes

Search period start: 02 October 2014 09:58
Search period end: 03 October 2014 09:58
Location: White Mills Observatory, 37.5374°N, 86.0303°W

Satellite Date Start Highest point End Downlink Frequencies (MHz)
Time Altitude Azimuth
Sapphire 02 Oct 10:10:44 10:16:07 76° 115° (ESE) 10:21:32 437.095 MHz 1200 baud AX-25 AFSK
UKube-1 02 Oct 10:10:47 10:12:22 12° 92° (E) 10:13:57 145.840 MHz, 145.915 MHz
HO-68 02 Oct 10:35:52 10:43:00 62° 103° (ESE) 10:50:05 435.675 MHz FM
PCSat 02 Oct 10:36:17 10:41:36 60° 300° (WNW) 10:46:59 145.825 MHz
ZACube-1 02 Oct 10:53:03 10:54:47 12° 90° (E) 10:56:29 437.345 MHz
Oscar 11 02 Oct 11:13:50 11:18:04 52° 100° (E) 11:22:16 145.825 FM, Beacon 2401.500 USB
RS-15 02 Oct 11:38:08 11:49:01 55° 52° (NE) 12:00:18 29.354 - 29.394 USB, Beacon 29.352 USB
FUNcube-1 02 Oct 11:41:38 11:45:58 43° 98° (E) 11:50:10 145.950 - 145.970 MHz USB
UKube-1 02 Oct 11:44:35 11:48:52 54° 286° (WNW) 11:53:07 145.840 MHz, 145.915 MHz
Sapphire 02 Oct 11:56:48 12:00:08 16° 313° (NW) 12:03:30 437.095 MHz 1200 baud AX-25 AFSK
HO-68 02 Oct 12:24:36 12:30:08 25° 300° (WNW) 12:35:40 435.675 MHz FM
ZACube-1 02 Oct 12:27:05 12:31:32 56° 286° (WNW) 12:35:51 437.345 MHz
Oscar 11 02 Oct 12:51:50 12:53:46 13° 295° (WNW) 12:55:42 145.825 FM, Beacon 2401.500 USB
Oscar 19 02 Oct 13:06:00 13:08:17 13° 62° (ENE) 13:10:35 437.125 CW, 437.150 USB
FUNcube-1 02 Oct 13:19:08 13:21:57 16° 294° (WNW) 13:24:43 145.950 - 145.970 MHz USB
Oscar 16 02 Oct 13:44:40 13:49:13 32° 69° (ENE) 13:53:46 437.025 USB, Beacon 2401.1428
AO-Echo 02 Oct 13:45:25 13:47:35 13° 63° (ENE) 13:49:45 ?
RS-15 02 Oct 13:50:54 14:01:05 42° 252° (WSW) 14:11:42 29.354 - 29.394 USB, Beacon 29.352 USB
AO-27 02 Oct 13:58:31 14:01:54 18° 64° (ENE) 14:05:18 436.795 MHz FM
Saudisat 1A 02 Oct 14:07:54 14:11:57 38° 115° (ESE) 14:16:02 436.775 MHz
Gurwin Techsat 1B 02 Oct 14:31:21 14:34:48 18° 64° (ENE) 14:38:15 435.225 FM
JAS-1B 02 Oct 14:32:59 14:40:31 61° 73° (ENE) 14:46:50 435.800 - 435.900 CW/SSB
Oscar 19 02 Oct 14:41:47 14:46:58 75° 258° (WSW) 14:52:10 437.125 CW, 437.150 USB
AO-7 02 Oct 14:54:16 14:57:02 12° 48° (NE) 14:59:46 29.400 - 29.500 MHz
ITAMSAT 1 02 Oct 14:56:56 15:02:02 64° 74° (ENE) 15:07:11 435.822 SSB
Uribyol 2 02 Oct 14:57:23 15:02:31 69° 74° (ENE) 15:07:42 436.500 FM
TMSAT-1 02 Oct 14:58:16 15:02:22 23° 66° (ENE) 15:06:28 436.925 FM
MaSat-1 02 Oct 15:06:02 15:07:52 14° 53° (NE) 15:09:34 437.345 MHz
AO-Echo 02 Oct 15:21:11 15:25:48 60° 259° (W) 15:30:29 ?
Oscar 16 02 Oct 15:24:05 15:28:30 28° 264° (W) 15:32:57 437.025 USB, Beacon 2401.1428
AO-27 02 Oct 15:35:55 15:40:57 53° 260° (W) 15:46:02 436.795 MHz FM
Saudisat 1A 02 Oct 15:48:13 15:51:38 22° 311° (NW) 15:55:04 436.775 MHz
Gurwin Techsat 1B 02 Oct 16:09:06 16:14:17 55° 260° (W) 16:19:30 435.225 FM
KITSAT 1 02 Oct 16:23:21 16:29:17 23° 104° (ESE) 16:35:14 435.175 FM
JAS-1B 02 Oct 16:25:45 16:31:17 21° 264° (W) 16:36:14 435.800 - 435.900 CW/SSB
TMSAT-1 02 Oct 16:37:03 16:42:00 41° 262° (W) 16:46:59 436.925 FM
ITAMSAT 1 02 Oct 16:39:26 16:41:56 14° 269° (W) 16:44:27 435.822 SSB
AO-7 02 Oct 16:40:01 16:48:06 60° 67° (ENE) 16:56:12 29.400 - 29.500 MHz
Uribyol 2 02 Oct 16:40:20 16:42:27 12° 269° (W) 16:44:35 436.500 FM
MaSat-1 02 Oct 16:41:52 16:44:16 21° 255° (WSW) 16:46:27 437.345 MHz
Uosat F 02 Oct 16:43:55 16:48:29 37° 70° (ENE) 16:53:04 435.120 FM
Oscar 10/S400 02 Oct 16:59:46 17:17:46 51° 156° (SSE) 17:50:57 145.825 - 145.975 CW/USB, Beacon 145.810 USB
JAS-2 02 Oct 17:14:53 17:17:01 13° 59° (ENE) 17:19:11 435.800 - 435.900 CW/SSB, 435.910 FM
PCSat 02 Oct 17:45:24 17:47:07 11° 42° (NE) 17:48:49 145.825 MHz
Hamsat 02 Oct 18:07:57 18:11:35 27° 71° (ENE) 18:15:13 145.90 MHz
KITSAT 1 02 Oct 18:15:51 18:23:54 71° 301° (WNW) 18:32:00 435.175 FM
Uosat F 02 Oct 18:23:30 18:27:20 22° 265° (W) 18:31:13 435.120 FM
AO-7 02 Oct 18:34:28 18:41:15 28° 264° (W) 18:48:04 29.400 - 29.500 MHz
OPAL 02 Oct 18:37:46 18:42:49 65° 104° (ESE) 18:47:47 ?
JAS-2 02 Oct 18:56:12 19:01:20 73° 258° (WSW) 19:06:46 435.800 - 435.900 CW/SSB, 435.910 FM
Sapphire 02 Oct 19:00:51 19:05:58 40° 56° (ENE) 19:11:02 437.095 MHz 1200 baud AX-25 AFSK
PANSAT 02 Oct 19:10:15 19:11:16 11° 162° (SSE) 19:12:17 not established
SO-67 02 Oct 19:12:36 19:14:35 15° 69° (ENE) 19:16:33 435.3500 MHz FM
SO-50 02 Oct 19:24:32 19:28:46 45° 115° (ESE) 19:33:07 436.795 FM
PCSat 02 Oct 19:26:05 19:31:31 71° 61° (ENE) 19:36:54 145.825 MHz
STRAND 1 02 Oct 19:42:36 19:46:41 23° 95° (E) 19:50:45 ?
Hamsat 02 Oct 19:44:02 19:47:29 23° 265° (W) 19:50:56 145.90 MHz
KITSAT 1 02 Oct 20:15:42 20:20:51 18° 323° (NW) 20:26:02 435.175 FM
OPAL 02 Oct 20:18:24 20:21:06 15° 300° (WNW) 20:23:47 ?
AO-40 02 Oct 20:20:59 02:17:49 47° 182° (S) 08:18:10 Beacon 2401.320
SO-67 02 Oct 20:44:25 20:47:21 26° 264° (W) 20:50:18 435.3500 MHz FM
Sapphire 02 Oct 20:44:44 20:49:08 26° 253° (WSW) 20:53:32 437.095 MHz 1200 baud AX-25 AFSK
PANSAT 02 Oct 20:47:56 20:50:47 20° 174° (S) 20:53:38 not established
HO-68 02 Oct 21:02:33 21:08:58 38° 65° (ENE) 21:15:26 435.675 MHz FM
SO-50 02 Oct 21:06:12 21:09:33 20° 313° (NW) 21:12:58 436.795 FM
PCSat 02 Oct 21:11:41 21:14:15 14° 257° (WSW) 21:16:48 145.825 MHz
STRAND 1 02 Oct 21:21:13 21:25:56 37° 290° (WNW) 21:30:39 ?
UOSAT-12 02 Oct 21:22:29 21:27:01 62° 117° (ESE) 21:31:39 437.025 FM, 437.400 FM
ISS 02 Oct 21:26:30 21:29:07 22° 131° (SE) 21:31:44 145.800 FM
Oscar 11 02 Oct 22:07:04 22:10:57 32° 71° (ENE) 22:14:51 145.825 FM, Beacon 2401.500 USB
PANSAT 02 Oct 22:27:35 22:30:24 19° 187° (S) 22:33:12 not established
FUNcube-1 02 Oct 22:36:07 22:40:01 29° 70° (ENE) 22:43:58 145.950 - 145.970 MHz USB
Saudisat 1A 02 Oct 22:36:45 22:40:02 20° 48° (NE) 22:43:19 436.775 MHz
UKube-1 02 Oct 22:37:49 22:42:08 82° 257° (WSW) 22:46:30 145.840 MHz, 145.915 MHz
HO-68 02 Oct 22:50:03 22:56:34 38° 262° (W) 23:03:10 435.675 MHz FM
ISS 02 Oct 23:02:34 23:05:39 35° 326° (NNW) 23:08:45 145.800 FM
UOSAT-12 02 Oct 23:04:34 23:07:35 17° 315° (NW) 23:10:38 437.025 FM, 437.400 FM
ZACube-1 02 Oct 23:20:57 23:25:30 89° 257° (WSW) 23:30:08 437.345 MHz
Oscar 11 02 Oct 23:44:00 23:47:10 20° 266° (W) 23:50:21 145.825 FM, Beacon 2401.500 USB
FUNcube-1 03 Oct 00:12:38 00:16:20 25° 265° (W) 00:20:07 145.950 - 145.970 MHz USB
Saudisat 1A 03 Oct 00:15:36 00:19:47 43° 245° (WSW) 00:23:56 436.775 MHz
KITSAT 1 03 Oct 00:18:39 00:21:04 11° 27° (NNE) 00:23:28 435.175 FM
RS-15 03 Oct 02:00:04 02:09:59 40° 108° (ESE) 02:19:43 29.354 - 29.394 USB, Beacon 29.352 USB
Oscar 16 03 Oct 02:00:11 02:02:14 12° 91° (E) 02:04:18 437.025 USB, Beacon 2401.1428
KITSAT 1 03 Oct 02:11:26 02:19:01 42° 52° (NE) 02:26:33 435.175 FM
JAS-1B 03 Oct 02:21:27 02:24:13 13° 93° (E) 02:27:06 435.800 - 435.900 CW/SSB
Oscar 19 03 Oct 02:55:35 03:00:31 45° 99° (E) 03:05:23 437.125 CW, 437.150 USB
ITAMSAT 1 03 Oct 03:12:21 03:16:44 27° 96° (E) 03:21:06 435.822 SSB
Uribyol 2 03 Oct 03:12:37 03:17:07 29° 96° (E) 03:21:35 436.500 FM
AO-Echo 03 Oct 03:29:46 03:34:43 50° 100° (E) 03:39:46 ?
Oscar 16 03 Oct 03:36:55 03:42:03 68° 286° (WNW) 03:47:07 437.025 USB, Beacon 2401.1428
AO-27 03 Oct 03:50:46 03:55:59 66° 102° (ESE) 04:01:10 436.795 MHz FM
ISS 03 Oct 03:56:35 03:59:00 18° 26° (NNE) 04:01:24 145.800 FM
SO-50 03 Oct 03:57:58 04:02:06 27° 50° (NE) 04:06:15 436.795 FM
KITSAT 1 03 Oct 04:06:55 04:14:23 43° 251° (WSW) 04:21:49 435.175 FM
JAS-1B 03 Oct 04:09:35 04:15:17 70° 286° (WNW) 04:21:36 435.800 - 435.900 CW/SSB
RS-15 03 Oct 04:11:08 04:21:53 56° 308° (NW) 04:32:35 29.354 - 29.394 USB, Beacon 29.352 USB
OPAL 03 Oct 04:15:53 04:17:38 12° 58° (ENE) 04:19:23 ?
Gurwin Techsat 1B 03 Oct 04:27:10 04:32:30 71° 102° (ESE) 04:37:47 435.225 FM
Oscar 19 03 Oct 04:35:50 04:39:29 20° 295° (WNW) 04:43:08 437.125 CW, 437.150 USB
AO-7 03 Oct 04:45:09 04:51:00 21° 93° (E) 04:56:49 29.400 - 29.500 MHz
MaSat-1 03 Oct 04:47:31 04:49:45 13° 102° (ESE) 04:51:58 437.345 MHz
ITAMSAT 1 03 Oct 04:51:33 04:56:13 34° 291° (WNW) 05:00:52 435.822 SSB
Uribyol 2 03 Oct 04:51:57 04:56:32 32° 292° (WNW) 05:01:05 436.500 FM
TMSAT-1 03 Oct 04:54:27 04:59:47 87° 284° (WNW) 05:05:05 436.925 FM
Uosat F 03 Oct 04:55:15 04:57:35 13° 92° (E) 04:59:55 435.120 FM
AO-Echo 03 Oct 05:09:41 05:13:05 18° 294° (WNW) 05:16:33 ?
AO-27 03 Oct 05:32:02 05:34:54 15° 298° (WNW) 05:37:45 436.795 MHz FM
ISS 03 Oct 05:32:39 05:35:56 60° 223° (SW) 05:39:12 145.800 FM
SO-50 03 Oct 05:38:18 05:42:42 35° 246° (WSW) 05:47:07 436.795 FM
OPAL 03 Oct 05:50:32 05:55:45 87° 254° (WSW) 06:01:00 ?
UOSAT-12 03 Oct 05:54:11 05:58:27 32° 52° (NE) 06:02:38 437.025 FM, 437.400 FM
JAS-2 03 Oct 06:06:39 06:11:29 19° 93° (E) 06:16:34 435.800 - 435.900 CW/SSB, 435.910 FM
Gurwin Techsat 1B 03 Oct 06:09:08 06:11:49 14° 298° (WNW) 06:14:30 435.225 FM
MaSat-1 03 Oct 06:20:55 06:25:43 63° 296° (WNW) 06:30:17 437.345 MHz
RS-15 03 Oct 06:30:15 06:37:27 19° 337° (NNW) 06:44:43 29.354 - 29.394 USB, Beacon 29.352 USB
Uosat F 03 Oct 06:31:46 06:36:45 63° 287° (WNW) 06:41:43 435.120 FM
AO-7 03 Oct 06:36:10 06:44:27 76° 290° (WNW) 06:52:43 29.400 - 29.500 MHz
TMSAT-1 03 Oct 06:37:56 06:38:52 10° 300° (WNW) 06:39:47 436.925 FM
STRAND 1 03 Oct 06:56:45 07:01:02 28° 68° (ENE) 07:05:21 ?
Hamsat 03 Oct 07:30:40 07:34:52 71° 101° (ESE) 07:39:00 145.90 MHz
UOSAT-12 03 Oct 07:34:31 07:38:28 27° 248° (WSW) 07:42:20 437.025 FM, 437.400 FM
JAS-2 03 Oct 07:49:59 07:56:50 74° 286° (WNW) 08:04:24 435.800 - 435.900 CW/SSB, 435.910 FM
SO-67 03 Oct 08:09:45 08:12:27 21° 95° (E) 08:15:08 435.3500 MHz FM
PCSat 03 Oct 08:26:57 08:28:24 11° 102° (ESE) 08:29:51 145.825 MHz
AO-7 03 Oct 08:31:24 08:35:52 16° 309° (NW) 08:40:22 29.400 - 29.500 MHz
STRAND 1 03 Oct 08:35:38 08:40:06 31° 263° (W) 08:44:37 ?
RS-15 03 Oct 08:49:44 08:56:11 17° 16° (NNE) 09:02:42 29.354 - 29.394 USB, Beacon 29.352 USB
JAS-2 03 Oct 09:38:08 09:40:57 13° 301° (WNW) 09:43:52 435.800 - 435.900 CW/SSB, 435.910 FM
Sapphire 03 Oct 09:40:29 09:45:43 54° 113° (ESE) 09:51:00 437.095 MHz 1200 baud AX-25 AFSK
SO-67 03 Oct 09:42:54 09:45:18 18° 290° (WNW) 09:47:40 435.3500 MHz FM
